DCM6021 KTEB-KJWN

Flight info

Callsign DCM6021
Flight time 1h 48m
Altitude 47000
Route PARKE J6 HVQ YOCKY GROAT
Aircraft C750/M-SBDE3FGHRWXY/S

Departure

Time 2026-05-09 00:26
Airport Teterboro Airport (KTEB)

Arrival

Time 2026-05-09 02:14
Airport John C Tune Airport (KJWN)
Time Latitude Longitude Altitude Speed Heading
2026-05-09 00:11 40.84612 -74.06656 13 ft 0 kts 230°
2026-05-09 00:21 40.84611 -74.06658 13 ft 2 kts 230°
2026-05-09 00:21 40.84598 -74.06679 13 ft 3 kts 238°
2026-05-09 00:21 40.84629 -74.06737 12 ft 12 kts 317°
2026-05-09 00:22 40.84690 -74.06779 17 ft 9 kts 22°
2026-05-09 00:22 40.84760 -74.06685 16 ft 18 kts 48°
2026-05-09 00:22 40.84836 -74.06573 19 ft 15 kts 48°
2026-05-09 00:22 40.84871 -74.06471 19 ft 12 kts 126°
2026-05-09 00:23 40.84802 -74.06352 15 ft 20 kts 128°
2026-05-09 00:23 40.84720 -74.06205 12 ft 19 kts 125°
2026-05-09 00:23 40.84619 -74.06127 11 ft 17 kts 182°
2026-05-09 00:23 40.84504 -74.06136 11 ft 16 kts 183°
2026-05-09 00:24 40.84388 -74.06144 10 ft 17 kts 183°
2026-05-09 00:24 40.84276 -74.06152 11 ft 15 kts 183°
2026-05-09 00:24 40.84162 -74.06161 11 ft 19 kts 182°
2026-05-09 00:24 40.84031 -74.06170 10 ft 18 kts 183°
2026-05-09 00:25 40.83912 -74.06180 13 ft 14 kts 184°
2026-05-09 00:25 40.83880 -74.06118 11 ft 10 kts 95°
2026-05-09 00:25 40.83898 -74.06035 9 ft 9 kts 15°
2026-05-09 00:25 40.83918 -74.06033 9 ft 3 kts
2026-05-09 00:26 40.84175 -74.06015 12 ft 91 kts
2026-05-09 00:26 40.85058 -74.05955 211 ft 142 kts
2026-05-09 00:26 40.86095 -74.05797 702 ft 163 kts 16°
2026-05-09 00:26 40.87206 -74.05104 1152 ft 190 kts 15°
2026-05-09 00:27 40.88546 -74.05314 1490 ft 207 kts 331°
2026-05-09 00:27 40.89512 -74.06844 1474 ft 235 kts 290°
2026-05-09 00:27 40.89478 -74.08986 1604 ft 233 kts 251°
2026-05-09 00:27 40.88836 -74.10830 2081 ft 213 kts 251°
2026-05-09 00:28 40.88616 -74.12709 2687 ft 195 kts 267°
2026-05-09 00:28 40.88533 -74.14430 3578 ft 188 kts 267°
2026-05-09 00:28 40.88587 -74.16311 3967 ft 224 kts 276°
2026-05-09 00:28 40.88801 -74.18252 4404 ft 219 kts 277°
2026-05-09 00:29 40.89041 -74.20349 4901 ft 236 kts 277°
2026-05-09 00:29 40.89293 -74.22513 5415 ft 239 kts 277°
2026-05-09 00:29 40.89554 -74.24700 5949 ft 242 kts 277°
2026-05-09 00:29 40.89825 -74.26902 6481 ft 243 kts 277°
2026-05-09 00:30 40.90099 -74.29084 6995 ft 244 kts 277°
2026-05-09 00:30 40.90382 -74.31293 7530 ft 243 kts 277°
2026-05-09 00:30 40.90666 -74.33511 8200 ft 244 kts 277°
2026-05-09 00:30 40.90853 -74.35743 8854 ft 248 kts 264°
2026-05-09 00:31 40.90315 -74.37887 9978 ft 245 kts 248°
2026-05-09 00:31 40.89595 -74.39994 10561 ft 262 kts 248°
2026-05-09 00:31 40.88853 -74.42326 10770 ft 288 kts 250°
2026-05-09 00:31 40.88075 -74.44893 10985 ft 310 kts 250°
2026-05-09 00:32 40.87259 -74.47528 11825 ft 310 kts 250°
2026-05-09 00:32 40.86419 -74.50181 12540 ft 315 kts 250°
2026-05-09 00:32 40.85582 -74.52865 13334 ft 317 kts 251°
2026-05-09 00:32 40.84741 -74.55587 14015 ft 321 kts 251°
2026-05-09 00:33 40.83896 -74.58295 14671 ft 324 kts 251°
2026-05-09 00:33 40.83027 -74.61061 15297 ft 328 kts 251°
2026-05-09 00:33 40.82150 -74.63858 15960 ft 332 kts 251°
2026-05-09 00:33 40.81265 -74.66683 16646 ft 335 kts 252°
2026-05-09 00:34 40.80367 -74.69547 17315 ft 339 kts 252°
2026-05-09 00:34 40.79457 -74.72441 17997 ft 344 kts 252°
2026-05-09 00:34 40.78535 -74.75372 18665 ft 347 kts 252°
2026-05-09 00:34 40.77608 -74.78315 19395 ft 348 kts 252°
2026-05-09 00:35 40.76678 -74.81266 20150 ft 349 kts 253°
2026-05-09 00:35 40.75746 -74.84221 20867 ft 349 kts 253°
2026-05-09 00:35 40.74809 -74.87186 21573 ft 352 kts 253°
2026-05-09 00:35 40.73864 -74.90176 22278 ft 354 kts 254°
2026-05-09 00:36 40.72914 -74.93176 22998 ft 355 kts 254°
2026-05-09 00:36 40.71957 -74.96195 23675 ft 357 kts 254°
2026-05-09 00:36 40.70995 -74.99230 24255 ft 359 kts 254°
2026-05-09 00:36 40.70029 -75.02270 24840 ft 361 kts 254°
2026-05-09 00:37 40.69056 -75.05329 25410 ft 362 kts 254°
2026-05-09 00:37 40.67974 -75.08359 25960 ft 369 kts 249°
2026-05-09 00:37 40.66662 -75.11279 26585 ft 372 kts 246°
2026-05-09 00:37 40.65322 -75.14212 27147 ft 374 kts 247°
2026-05-09 00:38 40.64006 -75.17124 27720 ft 375 kts 247°
2026-05-09 00:38 40.62660 -75.20086 28293 ft 378 kts 246°
2026-05-09 00:38 40.61297 -75.23063 28862 ft 380 kts 246°
2026-05-09 00:38 40.59927 -75.26052 29390 ft 382 kts 246°
2026-05-09 00:39 40.58552 -75.29061 29937 ft 384 kts 246°
2026-05-09 00:39 40.57170 -75.32084 30438 ft 386 kts 246°
2026-05-09 00:39 40.55783 -75.35109 30989 ft 386 kts 246°
2026-05-09 00:39 40.54396 -75.38122 31753 ft 380 kts 247°
2026-05-09 00:40 40.53036 -75.41078 32506 ft 375 kts 247°
2026-05-09 00:40 40.51700 -75.43989 33258 ft 369 kts 248°
2026-05-09 00:40 40.50402 -75.46814 33995 ft 363 kts 248°
2026-05-09 00:41 40.47797 -75.52475 35001 ft 362 kts 248°
2026-05-09 00:41 40.46487 -75.55317 35442 ft 364 kts 247°
2026-05-09 00:41 40.45174 -75.58155 35914 ft 364 kts 247°
2026-05-09 00:41 40.43858 -75.61001 36327 ft 364 kts 247°
2026-05-09 00:42 40.42550 -75.63825 37008 ft 360 kts 247°
2026-05-09 00:42 40.41252 -75.66630 37569 ft 359 kts 247°
2026-05-09 00:42 40.39952 -75.69437 38120 ft 359 kts 246°
2026-05-09 00:42 40.38651 -75.72238 38668 ft 359 kts 246°
2026-05-09 00:43 40.37349 -75.75040 39062 ft 360 kts 246°
2026-05-09 00:43 40.36041 -75.77856 39399 ft 363 kts 246°
2026-05-09 00:43 40.34722 -75.80691 39721 ft 366 kts 246°
2026-05-09 00:43 40.33389 -75.83553 40051 ft 369 kts 245°
2026-05-09 00:44 40.32045 -75.86433 40412 ft 371 kts 245°
2026-05-09 00:44 40.30697 -75.89321 40762 ft 373 kts 245°
2026-05-09 00:44 40.29337 -75.92235 41110 ft 375 kts 245°
2026-05-09 00:44 40.27988 -75.95124 41448 ft 378 kts 245°
2026-05-09 00:45 40.26605 -75.98078 41809 ft 379 kts 244°
2026-05-09 00:45 40.25227 -76.01017 42255 ft 379 kts 244°
2026-05-09 00:45 40.24312 -76.02971 42475 ft 381 kts 244°
2026-05-09 00:45 40.22922 -76.05937 42813 ft 383 kts 244°
2026-05-09 00:46 40.21523 -76.08918 43163 ft 385 kts 244°
2026-05-09 00:46 40.20117 -76.11906 43507 ft 387 kts 244°
2026-05-09 00:46 40.18704 -76.14911 43841 ft 389 kts 243°
2026-05-09 00:46 40.17281 -76.17935 44114 ft 392 kts 243°
2026-05-09 00:47 40.15845 -76.20981 44443 ft 394 kts 243°
2026-05-09 00:47 40.14417 -76.24006 44758 ft 395 kts 243°
2026-05-09 00:47 40.12974 -76.27063 45089 ft 396 kts 243°
2026-05-09 00:47 40.11529 -76.30121 45428 ft 395 kts 243°
2026-05-09 00:48 40.10106 -76.33197 45746 ft 395 kts 244°
2026-05-09 00:48 40.08707 -76.36280 46075 ft 393 kts 244°
2026-05-09 00:48 40.07301 -76.39340 46442 ft 392 kts 244°
2026-05-09 00:48 40.05886 -76.42386 46712 ft 392 kts 244°
2026-05-09 00:49 40.04472 -76.45437 46957 ft 393 kts 244°
2026-05-09 00:49 40.03050 -76.48523 46943 ft 399 kts 244°
2026-05-09 00:49 40.00138 -76.54811 46950 ft 411 kts 244°
2026-05-09 00:50 39.97152 -76.61233 46946 ft 422 kts 243°
2026-05-09 00:50 39.94078 -76.67847 46951 ft 430 kts 243°
2026-05-09 00:51 39.90943 -76.74573 46948 ft 438 kts 243°
2026-05-09 00:51 39.87750 -76.81398 46948 ft 444 kts 243°
2026-05-09 00:52 39.84523 -76.88295 46970 ft 449 kts 243°
2026-05-09 00:52 39.81253 -76.95258 46977 ft 452 kts 243°
2026-05-09 00:53 39.77977 -77.02225 46977 ft 455 kts 243°
2026-05-09 00:53 39.74660 -77.09259 46949 ft 457 kts 243°
2026-05-09 00:54 39.71337 -77.16291 46973 ft 457 kts 243°
2026-05-09 00:54 39.68003 -77.23333 46993 ft 458 kts 243°
2026-05-09 00:55 39.64653 -77.30390 46986 ft 459 kts 243°
2026-05-09 00:55 39.61299 -77.37440 46981 ft 460 kts 243°
2026-05-09 00:56 39.57934 -77.44498 46974 ft 460 kts 243°
2026-05-09 00:56 39.54618 -77.51431 46974 ft 452 kts 243°
2026-05-09 00:57 39.51305 -77.58359 46959 ft 452 kts 243°
2026-05-09 00:57 39.47971 -77.65300 46970 ft 453 kts 243°
2026-05-09 00:58 39.44637 -77.72234 46950 ft 454 kts 243°
2026-05-09 00:58 39.41318 -77.79117 46948 ft 454 kts 243°
2026-05-09 00:59 39.38055 -77.86089 46922 ft 447 kts 247°
2026-05-09 00:59 39.35232 -77.93257 46942 ft 447 kts 247°
2026-05-09 01:00 39.32377 -78.00409 46947 ft 447 kts 248°
2026-05-09 01:00 39.29541 -78.07564 46947 ft 448 kts 247°
2026-05-09 01:01 39.26699 -78.14672 46957 ft 448 kts 247°
2026-05-09 01:01 39.23842 -78.21828 46953 ft 449 kts 247°
2026-05-09 01:02 39.20976 -78.28977 46894 ft 447 kts 247°
2026-05-09 01:02 39.18141 -78.36034 46940 ft 442 kts 247°
2026-05-09 01:03 39.15306 -78.43079 46941 ft 443 kts 247°
2026-05-09 01:03 39.12458 -78.50138 46937 ft 444 kts 247°
2026-05-09 01:04 39.09607 -78.57186 46936 ft 444 kts 247°
2026-05-09 01:04 39.06763 -78.64202 46933 ft 444 kts 247°
2026-05-09 01:05 39.03900 -78.71250 46942 ft 444 kts 247°
2026-05-09 01:06 38.99622 -78.81751 46941 ft 441 kts 247°
2026-05-09 01:06 38.96770 -78.88730 46940 ft 440 kts 247°
2026-05-09 01:07 38.93917 -78.95692 46951 ft 440 kts 247°
2026-05-09 01:07 38.91059 -79.02655 46949 ft 440 kts 246°
2026-05-09 01:08 38.88223 -79.09544 46966 ft 434 kts 247°
2026-05-09 01:08 38.85401 -79.16432 46968 ft 436 kts 248°
2026-05-09 01:09 38.83341 -79.23650 46962 ft 428 kts 258°
2026-05-09 01:09 38.82017 -79.31038 46981 ft 427 kts 259°
2026-05-09 01:10 38.80667 -79.38463 46972 ft 428 kts 259°
2026-05-09 01:10 38.79332 -79.45907 46982 ft 428 kts 259°
2026-05-09 01:11 38.77979 -79.53329 46994 ft 428 kts 259°
2026-05-09 01:11 38.76631 -79.60770 46998 ft 429 kts 259°
2026-05-09 01:12 38.75272 -79.68188 46997 ft 430 kts 259°
2026-05-09 01:12 38.73903 -79.75659 46983 ft 430 kts 259°
2026-05-09 01:13 38.72536 -79.83081 46971 ft 431 kts 259°
2026-05-09 01:13 38.71157 -79.90548 46971 ft 431 kts 259°
2026-05-09 01:14 38.69773 -79.98000 46976 ft 430 kts 259°
2026-05-09 01:14 38.68385 -80.05459 46984 ft 429 kts 259°
2026-05-09 01:15 38.66993 -80.12900 46996 ft 429 kts 259°
2026-05-09 01:15 38.65610 -80.20274 46992 ft 429 kts 259°
2026-05-09 01:16 38.64211 -80.27698 46995 ft 429 kts 259°
2026-05-09 01:16 38.62806 -80.35129 46991 ft 430 kts 258°
2026-05-09 01:17 38.60684 -80.46297 46983 ft 431 kts 258°
2026-05-09 01:17 38.59265 -80.53727 46975 ft 430 kts 258°
2026-05-09 01:18 38.57854 -80.61093 46974 ft 427 kts 259°
2026-05-09 01:18 38.56436 -80.68474 46963 ft 427 kts 258°
2026-05-09 01:19 38.55013 -80.75844 46969 ft 428 kts 258°
2026-05-09 01:19 38.53580 -80.83237 46956 ft 429 kts 258°
2026-05-09 01:20 38.52145 -80.90623 46959 ft 429 kts 258°
2026-05-09 01:20 38.50699 -80.98027 46942 ft 429 kts 258°
2026-05-09 01:21 38.49261 -81.05375 46953 ft 429 kts 258°
2026-05-09 01:21 38.47801 -81.12758 46947 ft 429 kts 258°
2026-05-09 01:22 38.46357 -81.20155 46937 ft 430 kts 258°
2026-05-09 01:22 38.44876 -81.27541 46937 ft 429 kts 259°
2026-05-09 01:23 38.43440 -81.34943 46949 ft 430 kts 258°
2026-05-09 01:23 38.41949 -81.42295 46948 ft 430 kts 258°
2026-05-09 01:24 38.40475 -81.49694 46940 ft 430 kts 258°
2026-05-09 01:24 38.38977 -81.57073 46938 ft 429 kts 258°
2026-05-09 01:25 38.37523 -81.64400 46941 ft 429 kts 258°
2026-05-09 01:25 38.36021 -81.71771 46916 ft 430 kts 258°
2026-05-09 01:26 38.34392 -81.79086 46938 ft 431 kts 254°
2026-05-09 01:26 38.32367 -81.86281 46944 ft 431 kts 254°
2026-05-09 01:27 38.30362 -81.93494 46944 ft 432 kts 254°
2026-05-09 01:27 38.28334 -82.00696 46936 ft 432 kts 254°
2026-05-09 01:28 38.26310 -82.07886 46924 ft 432 kts 254°
2026-05-09 01:28 38.24288 -82.15036 46928 ft 432 kts 254°
2026-05-09 01:29 38.22251 -82.22234 46928 ft 432 kts 254°
2026-05-09 01:29 38.20206 -82.29424 46932 ft 432 kts 254°
2026-05-09 01:30 38.18164 -82.36600 46927 ft 431 kts 254°
2026-05-09 01:30 38.16123 -82.43784 46931 ft 432 kts 253°
2026-05-09 01:31 38.14075 -82.50909 46936 ft 432 kts 253°
2026-05-09 01:31 38.12019 -82.58087 46934 ft 432 kts 253°
2026-05-09 01:32 38.09950 -82.65258 46931 ft 432 kts 253°
2026-05-09 01:32 38.08230 -82.71233 46932 ft 432 kts 253°
2026-05-09 01:33 38.06160 -82.78409 46944 ft 432 kts 253°
2026-05-09 01:33 38.04079 -82.85574 46930 ft 433 kts 253°
2026-05-09 01:34 38.01998 -82.92735 46942 ft 432 kts 253°
2026-05-09 01:34 37.99912 -82.99891 46940 ft 432 kts 253°
2026-05-09 01:35 37.97825 -83.07030 46949 ft 429 kts 253°
2026-05-09 01:35 37.95760 -83.14080 46942 ft 430 kts 253°
2026-05-09 01:36 37.93673 -83.21185 46952 ft 430 kts 253°
2026-05-09 01:36 37.91580 -83.28291 46951 ft 430 kts 253°
2026-05-09 01:37 37.89484 -83.35388 46951 ft 430 kts 253°
2026-05-09 01:37 37.87379 -83.42498 46952 ft 430 kts 253°
2026-05-09 01:38 37.85288 -83.49543 46947 ft 430 kts 253°
2026-05-09 01:38 37.83173 -83.56649 46944 ft 431 kts 253°
2026-05-09 01:39 37.81056 -83.63745 46941 ft 430 kts 253°
2026-05-09 01:39 37.78948 -83.70792 46942 ft 430 kts 253°
2026-05-09 01:40 37.76844 -83.77802 46936 ft 424 kts 253°
2026-05-09 01:40 37.74748 -83.84784 46936 ft 425 kts 253°
2026-05-09 01:41 37.72639 -83.91774 46954 ft 425 kts 253°
2026-05-09 01:41 37.70534 -83.98743 46948 ft 425 kts 253°
2026-05-09 01:42 37.68426 -84.05700 46950 ft 426 kts 253°
2026-05-09 01:42 37.66153 -84.12625 46952 ft 430 kts 248°
2026-05-09 01:43 37.62929 -84.18987 46946 ft 422 kts 239°
2026-05-09 01:43 37.61048 -84.21742 46947 ft 409 kts 236°
2026-05-09 01:43 37.59153 -84.24389 46850 ft 403 kts 236°
2026-05-09 01:44 37.57301 -84.27002 46255 ft 394 kts 236°
2026-05-09 01:44 37.55494 -84.29541 45771 ft 384 kts 236°
2026-05-09 01:44 37.53723 -84.32014 45260 ft 375 kts 236°
2026-05-09 01:44 37.51988 -84.34437 44768 ft 369 kts 236°
2026-05-09 01:45 37.50279 -84.36831 44253 ft 366 kts 236°
2026-05-09 01:45 37.48580 -84.39213 43761 ft 366 kts 236°
2026-05-09 01:45 37.46872 -84.41600 43280 ft 367 kts 236°
2026-05-09 01:45 37.45160 -84.43982 42802 ft 366 kts 236°
2026-05-09 01:46 37.43458 -84.46350 42325 ft 364 kts 236°
2026-05-09 01:46 37.41763 -84.48713 41840 ft 362 kts 236°
2026-05-09 01:46 37.40079 -84.51058 41367 ft 360 kts 236°
2026-05-09 01:46 37.38403 -84.53388 40889 ft 358 kts 236°
2026-05-09 01:47 37.36738 -84.55699 40421 ft 355 kts 236°
2026-05-09 01:47 37.35106 -84.57967 39908 ft 353 kts 236°
2026-05-09 01:47 37.33469 -84.60242 39490 ft 349 kts 236°
2026-05-09 01:47 37.31839 -84.62505 39029 ft 348 kts 236°
2026-05-09 01:48 37.30216 -84.64752 38563 ft 346 kts 236°
2026-05-09 01:48 37.28576 -84.67022 38076 ft 346 kts 236°
2026-05-09 01:48 37.26952 -84.69275 37604 ft 349 kts 236°
2026-05-09 01:48 37.25339 -84.71505 37143 ft 350 kts 235°
2026-05-09 01:49 37.23701 -84.73766 36676 ft 350 kts 235°
2026-05-09 01:49 37.22062 -84.76029 36217 ft 351 kts 235°
2026-05-09 01:49 37.20416 -84.78302 35753 ft 352 kts 235°
2026-05-09 01:49 37.18765 -84.80580 35283 ft 353 kts 235°
2026-05-09 01:50 37.17110 -84.82861 34820 ft 354 kts 235°
2026-05-09 01:50 37.15448 -84.85148 34355 ft 355 kts 234°
2026-05-09 01:50 37.13780 -84.87442 33869 ft 356 kts 234°
2026-05-09 01:50 37.12103 -84.89753 33324 ft 361 kts 234°
2026-05-09 01:51 37.10402 -84.92096 32907 ft 366 kts 234°
2026-05-09 01:51 37.08675 -84.94464 32441 ft 369 kts 234°
2026-05-09 01:51 37.06933 -84.96850 31948 ft 372 kts 234°
2026-05-09 01:51 37.05181 -84.99255 31460 ft 376 kts 234°
2026-05-09 01:52 37.03428 -85.01659 30968 ft 380 kts 234°
2026-05-09 01:52 37.01624 -85.04129 30464 ft 385 kts 234°
2026-05-09 01:52 36.99817 -85.06590 29937 ft 384 kts 234°
2026-05-09 01:52 36.98016 -85.09050 29412 ft 383 kts 234°
2026-05-09 01:53 36.96219 -85.11515 28903 ft 383 kts 234°
2026-05-09 01:53 36.94425 -85.13966 28396 ft 382 kts 234°
2026-05-09 01:53 36.92626 -85.16418 27896 ft 382 kts 234°
2026-05-09 01:53 36.90830 -85.18865 27384 ft 382 kts 233°
2026-05-09 01:54 36.89042 -85.21304 26870 ft 379 kts 234°
2026-05-09 01:54 36.87265 -85.23725 26389 ft 378 kts 233°
2026-05-09 01:54 36.85487 -85.26145 25885 ft 378 kts 233°
2026-05-09 01:54 36.83725 -85.28538 25385 ft 379 kts 233°
2026-05-09 01:55 36.81939 -85.30960 24879 ft 380 kts 233°
2026-05-09 01:55 36.80146 -85.33393 24385 ft 380 kts 233°
2026-05-09 01:55 36.78351 -85.35829 23882 ft 381 kts 233°
2026-05-09 01:55 36.76552 -85.38267 23353 ft 382 kts 233°
2026-05-09 01:56 36.74844 -85.40736 22933 ft 362 kts 239°
2026-05-09 01:56 36.73609 -85.43273 22945 ft 336 kts 244°
2026-05-09 01:56 36.72403 -85.45860 22952 ft 346 kts 243°
2026-05-09 01:56 36.71185 -85.48413 22958 ft 347 kts 243°
2026-05-09 01:57 36.69953 -85.51003 22959 ft 348 kts 243°
2026-05-09 01:57 36.68733 -85.53610 22549 ft 347 kts 244°
2026-05-09 01:57 36.67524 -85.56203 22066 ft 345 kts 244°
2026-05-09 01:57 36.66310 -85.58774 21565 ft 343 kts 243°
2026-05-09 01:58 36.65101 -85.61318 21105 ft 340 kts 243°
2026-05-09 01:58 36.63904 -85.63852 20647 ft 338 kts 243°
2026-05-09 01:58 36.62717 -85.66372 20207 ft 337 kts 243°
2026-05-09 01:58 36.61527 -85.68889 19772 ft 336 kts 243°
2026-05-09 01:59 36.60353 -85.71365 19341 ft 336 kts 243°
2026-05-09 01:59 36.59167 -85.73867 18917 ft 335 kts 243°
2026-05-09 01:59 36.57985 -85.76363 18493 ft 334 kts 243°
2026-05-09 01:59 36.56804 -85.78849 18058 ft 333 kts 243°
2026-05-09 02:00 36.55681 -85.81350 17570 ft 330 kts 246°
2026-05-09 02:00 36.54736 -85.83942 17103 ft 328 kts 249°
2026-05-09 02:00 36.53865 -85.86561 16643 ft 326 kts 250°
2026-05-09 02:00 36.53022 -85.89180 16184 ft 326 kts 250°
2026-05-09 02:01 36.52197 -85.91794 15740 ft 325 kts 250°
2026-05-09 02:01 36.51381 -85.94413 15292 ft 324 kts 250°
2026-05-09 02:01 36.50577 -85.97022 14857 ft 323 kts 250°
2026-05-09 02:01 36.49793 -85.99595 14423 ft 322 kts 250°
2026-05-09 02:02 36.49011 -86.02200 14006 ft 321 kts 250°
2026-05-09 02:02 36.48241 -86.04801 13571 ft 321 kts 250°
2026-05-09 02:02 36.47479 -86.07397 13098 ft 319 kts 250°
2026-05-09 02:02 36.46724 -86.09984 12631 ft 317 kts 250°
2026-05-09 02:03 36.45976 -86.12553 12172 ft 315 kts 250°
2026-05-09 02:03 36.45231 -86.15113 11722 ft 314 kts 250°
2026-05-09 02:03 36.44488 -86.17669 11283 ft 306 kts 250°
2026-05-09 02:03 36.43788 -86.20090 10821 ft 288 kts 250°
2026-05-09 02:04 36.43129 -86.22397 10371 ft 280 kts 250°
2026-05-09 02:04 36.42485 -86.24662 9938 ft 277 kts 250°
2026-05-09 02:04 36.41850 -86.26905 9484 ft 275 kts 250°
2026-05-09 02:04 36.41223 -86.29137 9018 ft 273 kts 250°
2026-05-09 02:05 36.40607 -86.31361 8560 ft 272 kts 250°
2026-05-09 02:05 36.40000 -86.33580 8109 ft 271 kts 250°
2026-05-09 02:05 36.39403 -86.35794 7664 ft 270 kts 250°
2026-05-09 02:05 36.38815 -86.38004 7226 ft 269 kts 250°
2026-05-09 02:06 36.38238 -86.40208 6790 ft 268 kts 250°
2026-05-09 02:06 36.37670 -86.42407 6365 ft 267 kts 250°
2026-05-09 02:06 36.37112 -86.44599 5912 ft 265 kts 250°
2026-05-09 02:07 36.36045 -86.48907 5042 ft 259 kts 250°
2026-05-09 02:07 36.35534 -86.51026 5023 ft 257 kts 250°
2026-05-09 02:07 36.35036 -86.53157 5023 ft 259 kts 253°
2026-05-09 02:07 36.34819 -86.55406 4867 ft 265 kts 264°
2026-05-09 02:08 36.34767 -86.57681 4607 ft 262 kts 265°
2026-05-09 02:08 36.34738 -86.59932 4326 ft 261 kts 265°
2026-05-09 02:08 36.34712 -86.62175 4050 ft 259 kts 265°
2026-05-09 02:08 36.34684 -86.64408 3763 ft 259 kts 265°
2026-05-09 02:09 36.34660 -86.66641 3492 ft 258 kts 265°
2026-05-09 02:09 36.34641 -86.68861 3212 ft 256 kts 266°
2026-05-09 02:09 36.34623 -86.71069 2985 ft 254 kts 265°
2026-05-09 02:09 36.34609 -86.73257 2983 ft 255 kts 266°
2026-05-09 02:10 36.34592 -86.75455 2997 ft 255 kts 266°
2026-05-09 02:10 36.34577 -86.77654 2994 ft 257 kts 265°
2026-05-09 02:10 36.34503 -86.79863 2964 ft 254 kts 257°
2026-05-09 02:10 36.33720 -86.81756 2965 ft 245 kts 230°
2026-05-09 02:11 36.32615 -86.83334 2935 ft 239 kts 226°
2026-05-09 02:11 36.31520 -86.84614 2925 ft 193 kts 204°
2026-05-09 02:11 36.30282 -86.84910 2748 ft 177 kts 190°
2026-05-09 02:11 36.29082 -86.85219 2665 ft 177 kts 193°
2026-05-09 02:12 36.27865 -86.85508 2582 ft 179 kts 193°
2026-05-09 02:12 36.26650 -86.85864 2501 ft 182 kts 195°
2026-05-09 02:12 36.25391 -86.86220 2241 ft 186 kts 194°
2026-05-09 02:12 36.24144 -86.86595 1997 ft 183 kts 197°
2026-05-09 02:13 36.23025 -86.87101 1500 ft 160 kts 202°
2026-05-09 02:13 36.22003 -86.87425 1111 ft 143 kts 194°
2026-05-09 02:13 36.21104 -86.87731 904 ft 128 kts 197°
2026-05-09 02:13 36.20257 -86.88010 725 ft 124 kts 196°
2026-05-09 02:14 36.19423 -86.88284 562 ft 122 kts 195°
2026-05-09 02:14 36.18673 -86.88529 508 ft 90 kts 194°
2026-05-09 02:14 36.18231 -86.88674 506 ft 41 kts 195°
2026-05-09 02:14 36.18014 -86.88746 506 ft 25 kts 195°
2026-05-09 02:15 36.17927 -86.88723 506 ft 12 kts 104°
2026-05-09 02:15 36.17926 -86.88634 507 ft 9 kts 36°
2026-05-09 02:15 36.17985 -86.88615 506 ft 9 kts 14°
2026-05-09 02:15 36.18017 -86.88575 506 ft 6 kts 100°
2026-05-09 02:16 36.18004 -86.88524 507 ft 6 kts 109°
2026-05-09 02:16 36.17979 -86.88485 507 ft 6 kts 136°
2026-05-09 02:16 36.17950 -86.88452 507 ft 6 kts 136°
2026-05-09 02:16 36.17931 -86.88429 507 ft 6 kts 136°
2026-05-09 02:17 36.17906 -86.88424 507 ft 3 kts 221°
2026-05-09 02:17 36.17899 -86.88434 507 ft 0 kts 229°